Location: ??????
(38.0677°N, 22.9870°E)
Time: 16:03:17
(UTC+00:00)

BREEZE-M R/B - Pass Details

Date: 23 May 2024
Orbit: 661 x 26494 km, 48.9° (Epoch: 24 June)

Event Time Altitude Azimuth Distance (km) Brightness Sun altitude
Exits shadow 01:00:10 30° 259° (W) 1,616 4.2 -20.9°
Maximum altitude 01:02:50 69° 336° (NNW) 1,329 4.2 -20.6°
Drops below altitude 10° 01:18:54 10° 60° (ENE) 7,673 9.2 -18.5°
Sets 01:31:40 0° 64° (ENE) 12,106 10.5 -16.7°
